#timestamp,LO_Frequency,Hit 
1499940015.8,286047007.4,N
1499940035.6,286047007.2,N
1499940055.5,286047006.9,N
1499940075.3,286047007.3,N
1499940095.1,286047007.3,N
1499940115.9,286047008.8,N
1499940135.7,286047006.9,N
1499940155.5,286047006.3,N
1499940175.4,286047008.8,N
1499940195.2,286047009.2,N
1499940215.1,286047007.5,N
1499940216.0,286047007.5,N
1499940235.8,286047003.6,N
1499940255.6,286047003.2,N
1499940275.5,286047001.7,N
1499940295.3,286047003.3,N
1499940315.1,286047007.0,N
1499940335.9,286047005.0,N
1499940355.7,286047005.8,N
1499940375.6,286047007.5,N
1499940395.4,286047008.7,N
1499940415.2,286047006.8,N
1499940435.1,286047006.2,N
1499940436.0,286047006.2,N
1499940455.8,286047006.2,N
1499940475.7,286047008.5,N
1499940495.5,286047008.5,N
1499940515.3,286047009.9,N
1499940535.2,286047007.9,N
1499940555.0,286047009.3,N
1499940555.9,286047009.3,N
1499940575.7,286047008.8,N
1499940595.6,286047008.8,N
1499940615.4,286047010.8,N
1499940635.3,286047011.6,N
1499940655.1,286047013.2,N
1499940675.8,286047011.1,N
1499940695.7,286047013.6,N
1499940715.5,286047015.6,N
1499940735.4,286047012.5,N
1499940755.2,286047012.9,N
1499940775.0,286047011.0,N
1499940775.9,286047011.0,N
1499940795.8,286047013.6,N
1499940815.6,286047012.4,N
1499940835.4,286047009.8,N
1499940855.3,286047010.5,N
1499940875.1,286047009.7,N
1499940895.9,286047007.9,N
1499940915.7,286047006.1,N
1499940935.5,286047006.7,N
1499940955.4,286047007.4,N
1499940975.2,286047008.4,N
1499940995.0,286047010.4,N
1499940996.0,286047010.4,N
1499941015.8,286047008.6,N
1499941035.6,286047008.5,N
1499941055.5,286047008.4,N
1499941075.3,286047008.7,N
1499941095.1,286047008.1,N
1499941115.9,286047010.2,N
1499941135.7,286047009.6,N
1499941155.6,286047011.3,N
1499941175.4,286047011.4,N
1499941195.2,286047010.3,N
1499941215.1,286047007.6,N
1499941216.0,286047007.6,N
1499941235.8,286047008.8,N
1499941255.6,286047010.7,N
1499941275.5,286047012.3,N
1499941325.4,286047011.4,Y
1499941335.3,286047007.1,N
1499941355.1,286047000.5,N
1499941375.9,286046999.9,N
1499941395.7,286047002.6,N
1499941415.5,286047002.4,N
1499941435.4,286047000.5,N
1499941455.2,286047002.6,N
1499941475.0,286047001.8,N
1499941475.9,286047001.8,N
1499941495.8,286047004.0,N
1499941515.6,286047004.1,N
1499941535.5,286047003.8,N
1499941555.3,286047002.2,N
1499941575.1,286047002.2,N
1499941595.9,286047000.3,N
1499941615.7,286046999.1,N
1499941635.6,286046998.1,N
1499941655.4,286047001.2,N
1499941675.2,286046998.1,N
1499941695.1,286046999.8,N
1499941696.0,286046999.8,N
1499941715.8,286047002.2,N
1499941735.6,286047002.0,N
1499941755.5,286047001.8,N
1499941775.3,286047001.7,N
1499941795.2,286047004.0,N
1499941815.9,286046999.9,N
1499941835.7,286046999.9,N
1499941855.6,286047000.3,N
1499941875.4,286047001.4,N
1499941895.3,286047000.2,N
1499941915.1,286046999.9,N
1499941916.0,286046999.9,N
1499941935.8,286046999.5,N
1499941955.7,286046997.5,N
1499941975.5,286046998.8,N
1499941995.4,286046997.3,N
1499942015.2,286046997.3,N
1499942035.0,286046999.2,N
1499942035.9,286046999.2,N
1499942055.8,286047000.5,N
1499942075.6,286046997.1,N
1499942095.5,286046998.9,N
1499942115.3,286046998.3,N
1499942135.1,286046998.3,N
1499942155.9,286046998.4,N
1499942175.7,286046999.0,N
1499942195.6,286047000.8,N
1499942215.4,286047000.0,N
1499942235.2,286047002.1,N
1499942255.1,286046999.8,N
1499942256.0,286046999.8,N
1499942275.8,286046999.7,N
1499942295.7,286047000.7,N
1499942315.5,286046995.0,N
1499942335.3,286046997.9,N
1499942355.2,286046995.0,N
1499942375.9,286046995.5,N
1499942395.7,286046995.1,N
1499942415.6,286046995.8,N
1499942435.4,286046995.7,N
1499942455.3,286046996.6,N
1499942475.1,286046997.3,N
1499942476.0,286046997.3,N
1499942495.8,286046998.2,N
1499942515.7,286046997.2,N
1499942535.5,286046997.6,N
1499942555.3,286046997.2,N
1499942575.2,286046997.8,N
1499942595.0,286046997.0,N
1499942595.9,286046997.0,N
1499942615.8,286046998.4,N
1499942635.6,286046996.6,N
1499942655.4,286046996.5,N
1499942675.3,286046999.8,N
1499942695.1,286046998.2,N
1499942715.8,286046998.8,N
1499942735.7,286047001.1,N
1499942755.5,286047002.0,N
1499942775.4,286047002.4,N
1499942795.2,286047002.7,N
1499942815.0,286047002.2,N
1499942815.9,286047002.2,N
1499942835.8,286047002.7,N
1499942855.6,286047002.1,N
1499942875.4,286046999.9,N
1499942895.3,286047002.3,N
1499942915.1,286047003.1,N
1499942935.9,286047004.1,N
1499942955.7,286047003.7,N
1499942975.5,286047003.4,N
1499942995.4,286047003.0,N
1499943015.2,286047004.9,N
1499943035.1,286047004.5,N
1499943036.0,286047004.5,N
1499943055.8,286047003.7,N
1499943075.6,286047003.5,N
1499943095.5,286047003.1,N
1499943115.3,286047005.9,N
1499943135.2,286047000.2,N
1499943155.9,286047002.6,N
1499943175.7,286047004.4,N
1499943195.6,286047001.6,N
1499943215.4,286047001.4,N
1499943235.2,286047001.8,N
1499943255.1,286047002.6,N
1499943256.0,286047002.6,N
1499943275.8,286047002.6,N
1499943295.7,286046999.9,N
1499943315.5,286046996.8,N
1499943335.3,286046998.9,N
1499943355.2,286046997.9,N
1499943375.0,286046999.4,N
1499943375.9,286046999.4,N
1499943395.7,286047000.8,N
1499943415.6,286047002.3,N
1499943435.4,286047001.3,N
1499943455.3,286047003.8,N
1499943475.1,286047004.4,N
1499943476.0,286047004.4,N
1499943495.8,286047001.0,N
1499943515.7,286047001.2,N
1499943535.5,286047001.3,N
1499943555.4,286047001.8,N
1499943575.2,286047001.9,N
1499943595.0,286047001.1,N
1499943595.9,286047001.1,N
